Tiempo cada hora Alcoi

Hoy, 19 Abril, Lunes

Tiempo Temperatura Precipitaciones Viento Presión Humedad
00:00 +9°C° 0 mm 3 mps 717 mmHg 76%
01:00 +9°C° 0 mm 3 mps 716 mmHg 74%
02:00 +9°C° 0 mm 3 mps 716 mmHg 72%
03:00 +9°C° 0 mm 3 mps 716 mmHg 70%
04:00 +9°C° 0 mm 3 mps 716 mmHg 68%
05:00 +9°C° 0 mm 3 mps 715 mmHg 66%
06:00 +9°C° 0 mm 3 mps 715 mmHg 65%
07:00 +12°C° 0 mm 3 mps 715 mmHg 55%
08:00 +14°C° 0 mm 3 mps 716 mmHg 45%
09:00 +17°C° 0 mm 3 mps 716 mmHg 35%
10:00 +18°C° 0 mm 3 mps 716 mmHg 32%
11:00 +19°C° 0 mm 3 mps 715 mmHg 29%
12:00 +21°C° 0 mm 4 mps 715 mmHg 25%
13:00 +21°C° 0 mm 4 mps 715 mmHg 25%
14:00 +21°C° 0 mm 4 mps 714 mmHg 24%
15:00 +21°C° 0 mm 4 mps 714 mmHg 24%
16:00 +20°C° 0 mm 4 mps 713 mmHg 29%
17:00 +19°C° 0 mm 3 mps 713 mmHg 34%
18:00 +18°C° 0 mm 3 mps 713 mmHg 39%
19:00 +17°C° 0 mm 2 mps 713 mmHg 44%
20:00 +15°C° 0 mm 2 mps 714 mmHg 50%
21:00 +14°C° 0 mm 1 mps 714 mmHg 55%
22:00 +14°C° 0 mm 1 mps 714 mmHg 55%
23:00 +14°C° 0 mm 1 mps 713 mmHg 55%

Mañana, 20 Abril, Martes

Tiempo Temperatura Precipitaciones Viento Presión Humedad
00:00 +14°C° 0 mm 1 mps 713 mmHg 55%
01:00 +14°C° 0 mm 1 mps 713 mmHg 57%
02:00 +13°C° 0 mm 1 mps 713 mmHg 59%
03:00 +13°C° 0 mm 1 mps 713 mmHg 61%
04:00 +13°C° 0 mm 1 mps 713 mmHg 63%
05:00 +13°C° 0 mm 1 mps 713 mmHg 64%
06:00 +13°C° 0 mm 1 mps 713 mmHg 66%
07:00 +14°C° 0 mm 1 mps 713 mmHg 61%
08:00 +16°C° 0 mm 1 mps 713 mmHg 56%
09:00 +17°C° 0 mm 2 mps 713 mmHg 51%
10:00 +18°C° 0.3 mm 2 mps 713 mmHg 49%
11:00 +19°C° 0.3 mm 2 mps 713 mmHg 46%
12:00 +20°C° 0.3 mm 3 mps 712 mmHg 44%
13:00 +19°C° 0.4 mm 3 mps 712 mmHg 49%
14:00 +18°C° 0.4 mm 3 mps 712 mmHg 55%
15:00 +17°C° 0.4 mm 3 mps 711 mmHg 61%
16:00 +16°C° 0.3 mm 3 mps 711 mmHg 63%
17:00 +16°C° 0.3 mm 2 mps 711 mmHg 66%
18:00 +16°C° 0.3 mm 2 mps 711 mmHg 69%
19:00 +15°C° 0.3 mm 2 mps 711 mmHg 73%
20:00 +14°C° 0.3 mm 1 mps 712 mmHg 77%
21:00 +14°C° 0.3 mm 1 mps 712 mmHg 81%
22:00 +13°C° 0 mm 1 mps 712 mmHg 82%
23:00 +13°C° 0 mm 1 mps 712 mmHg 83%

Pasado mañana, 21 Abril, Miércoles

Tiempo Temperatura Precipitaciones Viento Presión Humedad
00:00 +13°C° 0 mm 1 mps 711 mmHg 83%
01:00 +13°C° 0 mm 1 mps 711 mmHg 84%
02:00 +13°C° 0 mm 1 mps 711 mmHg 84%
03:00 +12°C° 0 mm 1 mps 711 mmHg 84%
04:00 +12°C° 0 mm 1 mps 711 mmHg 83%
05:00 +13°C° 0 mm 1 mps 711 mmHg 82%
06:00 +13°C° 0 mm 1 mps 711 mmHg 82%
07:00 +14°C° 0 mm 1 mps 711 mmHg 75%
08:00 +15°C° 0 mm 1 mps 711 mmHg 68%
09:00 +16°C° 0 mm 2 mps 712 mmHg 61%
10:00 +17°C° 0.1 mm 2 mps 712 mmHg 57%
11:00 +18°C° 0.1 mm 2 mps 711 mmHg 53%
12:00 +19°C° 0.1 mm 3 mps 711 mmHg 49%
13:00 +18°C° 0.3 mm 3 mps 711 mmHg 52%
14:00 +18°C° 0.3 mm 3 mps 711 mmHg 55%
15:00 +17°C° 0.3 mm 3 mps 710 mmHg 58%
16:00 +17°C° 0.2 mm 2 mps 710 mmHg 63%
17:00 +16°C° 0.2 mm 2 mps 711 mmHg 69%
18:00 +15°C° 0.2 mm 1 mps 711 mmHg 74%
19:00 +14°C° 0.6 mm 1 mps 711 mmHg 79%
20:00 +14°C° 0.6 mm 1 mps 712 mmHg 84%
21:00 +13°C° 0.6 mm 1 mps 712 mmHg 88%
22:00 +13°C° 1.1 mm 1 mps 712 mmHg 89%
23:00 +13°C° 1.1 mm 1 mps 712 mmHg 90%

22 Abril, Jueves

Tiempo Temperatura Precipitaciones Viento Presión Humedad
00:00 +13°C° 1.1 mm 1 mps 712 mmHg 91%
01:00 +13°C° 0.5 mm 1 mps 711 mmHg 92%
02:00 +12°C° 0.5 mm 1 mps 711 mmHg 92%
03:00 +12°C° 0.5 mm 1 mps 711 mmHg 93%
04:00 +12°C° 0.8 mm 1 mps 711 mmHg 93%
05:00 +12°C° 0.8 mm 1 mps 711 mmHg 93%
06:00 +12°C° 0.8 mm 1 mps 711 mmHg 92%
07:00 +13°C° 1.5 mm 1 mps 711 mmHg 88%
08:00 +14°C° 1.5 mm 1 mps 711 mmHg 83%
09:00 +14°C° 1.5 mm 2 mps 712 mmHg 79%
10:00 +15°C° 0.9 mm 2 mps 712 mmHg 72%
11:00 +16°C° 0.9 mm 2 mps 712 mmHg 66%
12:00 +18°C° 0.9 mm 3 mps 712 mmHg 59%
13:00 +18°C° 0.6 mm 3 mps 711 mmHg 59%
14:00 +18°C° 0.6 mm 3 mps 711 mmHg 58%
15:00 +18°C° 0.6 mm 3 mps 711 mmHg 57%
16:00 +17°C° 0.3 mm 3 mps 711 mmHg 63%
17:00 +16°C° 0.3 mm 3 mps 712 mmHg 69%
18:00 +14°C° 0.3 mm 3 mps 712 mmHg 75%
19:00 +13°C° 0.1 mm 3 mps 713 mmHg 80%
20:00 +14°C° 0.1 mm 2 mps 713 mmHg 86%
21:00 +13°C° 0.1 mm 2 mps 714 mmHg 92%
22:00 +12°C° 0 mm 2 mps 714 mmHg 92%
23:00 +12°C° 0 mm 2 mps 714 mmHg 92%

23 Abril, Viernes

Tiempo Temperatura Precipitaciones Viento Presión Humedad
00:00 +12°C° 0 mm 2 mps 714 mmHg 93%
01:00 +12°C° 0 mm 2 mps 714 mmHg 92%
02:00 +12°C° 0 mm 2 mps 714 mmHg 92%
03:00 +10°C° 0 mm 2 mps 714 mmHg 91%
04:00 +10°C° 0 mm 2 mps 714 mmHg 90%
05:00 +10°C° 0 mm 2 mps 714 mmHg 90%
06:00 +12°C° 0 mm 1 mps 714 mmHg 89%
07:00 +12°C° 0 mm 1 mps 714 mmHg 84%
08:00 +13°C° 0 mm 1 mps 715 mmHg 79%
09:00 +14°C° 0 mm 1 mps 715 mmHg 74%
10:00 +15°C° 0 mm 2 mps 715 mmHg 72%
11:00 +16°C° 0 mm 2 mps 715 mmHg 69%
12:00 +17°C° 0 mm 2 mps 715 mmHg 66%
13:00 +17°C° 0 mm 2 mps 715 mmHg 66%
14:00 +17°C° 0 mm 2 mps 714 mmHg 66%
15:00 +18°C° 0 mm 3 mps 714 mmHg 65%
16:00 +17°C° 0 mm 2 mps 714 mmHg 70%
17:00 +16°C° 0 mm 2 mps 714 mmHg 74%
18:00 +15°C° 0 mm 2 mps 715 mmHg 79%
19:00 +15°C° 0 mm 2 mps 715 mmHg 82%
20:00 +14°C° 0 mm 1 mps 715 mmHg 85%
21:00 +14°C° 0 mm 1 mps 715 mmHg 87%
22:00 +13°C° 0 mm 1 mps 715 mmHg 89%
23:00 +13°C° 0 mm 1 mps 715 mmHg 90%

24 Abril, Sábado

Tiempo Temperatura Precipitaciones Viento Presión Humedad
00:00 +13°C° 0 mm 1 mps 715 mmHg 92%
01:00 +12°C° 0 mm 1 mps 715 mmHg 92%
02:00 +12°C° 0 mm 2 mps 714 mmHg 92%
03:00 +12°C° 0 mm 2 mps 714 mmHg 92%
04:00 +12°C° 0 mm 2 mps 714 mmHg 90%
05:00 +12°C° 0 mm 2 mps 715 mmHg 89%
06:00 +12°C° 0 mm 2 mps 715 mmHg 87%
07:00 +13°C° 0 mm 2 mps 715 mmHg 84%
08:00 +13°C° 0 mm 2 mps 715 mmHg 80%
09:00 +13°C° 0 mm 3 mps 715 mmHg 77%
10:00 +14°C° 0 mm 3 mps 715 mmHg 71%
11:00 +15°C° 0 mm 4 mps 715 mmHg 65%
12:00 +17°C° 0 mm 4 mps 714 mmHg 59%
13:00 +17°C° 0 mm 5 mps 714 mmHg 60%
14:00 +17°C° 0 mm 5 mps 714 mmHg 60%
15:00 +17°C° 0 mm 5 mps 714 mmHg 61%
16:00 +16°C° 0 mm 6 mps 713 mmHg 66%
17:00 +14°C° 0 mm 6 mps 713 mmHg 70%
18:00 +13°C° 0 mm 6 mps 712 mmHg 75%
19:00 +13°C° 0 mm 6 mps 713 mmHg 78%
20:00 +11°C° 0 mm 6 mps 713 mmHg 81%
21:00 +12°C° 0 mm 5 mps 713 mmHg 83%
22:00 +10°C° 0.6 mm 6 mps 713 mmHg 85%
23:00 +10°C° 0.6 mm 7 mps 712 mmHg 87%
Mostrar más

Necesitamos Su Consentimiento

Meteoprog y nuestros Proveedores de Servicios pueden almacenar y acceder a sus datos personales como cookies, identificadores de dispositivo u otras tecnologías similares de su dispositivo y procesar dichos datos para personalizar contenido y anuncios, además de ofrecer funciones de redes sociales y analizar el tráfico.

  • Almacenar y/o acceder a información en su dispositivo

    Se puede almacenar o acceder a cookies, identificadores de dispositivo u otra información de su dispositivo para los fines anteriormente indicados.

  • Anuncios y contenido personalizados, medición de anuncios y contenido, percepciones del público, y desarrollo de productos

    Los anuncios y el contenido pueden personalizarse en base a su perfil. Se pueden añadir más datos para personalizar mejor los anuncios y contenidos. Se puede medir el rendimiento de los anuncios y contenidos. Se puede obtener la percepción sobre el público que ha visto los anuncios y contenidos. Dichos datos pueden usarse para desarrollar o mejorar la experiencia del usuario, sistemas y software.

Al hacer clic en ‘Estoy De Acuerdo’ usted permitirá el uso de las cookies, identificadores de dispositivo, balizas web u otras tecnologías similares indicadas. Su configuración puede cambiarse desde el navegador de su dispositivo.

Para ciertos fines, los intereses legítimos pueden ser considerados por encima del consentimiento. Puede leer más sobre ello en nuestra Política de Privacidad y Cookies.